Home > Weather > Cuiabá > Past weeks

Flag for Brazil Past Weather in Cuiabá, Mato Grosso, Brazil — Yesterday and Last 2 Weeks

Now
77 °F

Sunny.


Feels Like: 78 °F
Forecast: 62 / 94 °F
Wind: 8 mph from Southeast

Location: Corumba Airport

Current Time: Jul 24, 2016 at 8:57:18 AM

Latest Report: Jul 24, 2016 at 8:00 AM


Visibility: 10 mi

Pressure: 29.98 "Hg

Humidity: 42%

Dew Point: 52 °F

Location of CuiabáLocation

Past Weather in Cuiabá — Graph

°F

Cuiabá Temperature Yesterday

Maximum temperature yesterday: 88 °F (at 2:00 PM)
Minimum temperature yesterday: 70 °F (at 6:00 AM)
Average temperature yesterday: 79 °F

High & Low Weather Summary for the Past Weeks

 TemperatureHumidityPressure
High95 °F (Jul 12, 2:00 PM)88% (Jul 16, 7:00 AM)30.24 "Hg (Jul 16, 7:00 AM)
Low48 °F (Jul 17, 6:00 AM)23% (Jul 17, 2:00 PM)29.74 "Hg (Jul 15, 3:00 PM)
Average76 °F52%29.97 "Hg
* Reported Jul 9 7:00 AM — Jul 24 7:00 AM, Cuiabá, Weather by CustomWeather, © 2016

Note: Actual official high and low records may vary slightly from our data, if they occured in-between our weather recording intervals... More about our weather records

Advertising

Cuiabá Weather History for the Previous 24 Hours

Scroll right to see more
 ConditionsComfort  
Time TempWeatherWind HumidityBarometerVisibility
7:00 AM
Sun, Jul 24
72 °FSunny.7 mph50%29.98 "Hg10 mi
6:00 AM72 °FClear.7 mph53%29.95 "Hg10 mi
12:00 AM73 °FClear.5 mph57%29.92 "Hg10 mi
11:00 PM
Sat, Jul 23
72 °FClear.5 mph65%29.92 "Hg10 mi
10:00 PM73 °FClear.6 mph61%29.95 "Hg10 mi
9:00 PM75 °FClear.6 mph54%29.92 "Hg10 mi
8:00 PM77 °FClear.7 mph51%29.92 "Hg10 mi
7:00 PM79 °FClear.7 mph48%29.89 "Hg10 mi
6:00 PM79 °FClear.7 mph45%29.89 "Hg10 mi
5:00 PM84 °FSunny.8 mph35%29.89 "Hg10 mi
4:00 PM86 °FSunny.10 mph31%29.89 "Hg10 mi
3:00 PM88 °FSunny.9 mph29%29.89 "Hg10 mi
2:00 PM88 °FSunny.12 mph33%29.92 "Hg10 mi
1:00 PM86 °FSunny.9 mph38%29.95 "Hg10 mi
12:00 PM84 °FSunny.8 mph40%29.98 "Hg10 mi
11:00 AM81 °FSunny.8 mph45%30.01 "Hg10 mi
10:00 AM79 °FSunny.8 mph45%30.04 "Hg10 mi
9:00 AM79 °FSunny.9 mph37%30.01 "Hg10 mi
8:00 AM73 °FSunny.8 mph50%29.98 "Hg10 mi
Weather by CustomWeather, © 2016

See weather overviewHow to use our weather pages